Вернуться в каталог

FENGYUN 1C DEB

АктивенPO
NORAD 37686·DEBRIS·🇨🇳 China

Запущен May 10, 1999 с Taiyuan Satellite Launch Center

Loading…

Ближайшие Пролёты (ближайшие 24 часа)

TLE

УстаревающийSource: Space-Track

Эпоха: Sep 5, 2026, 18:28 UTC

1 37686U 99025ELB 26248.76963510  .00000211  00000-0  30755-3 0  9991
2 37686  99.0211 241.7246 0396477  99.5258  72.3688 13.35566562641911

Отслеживайте FENGYUN 1C DEB в реальном времени с AllMySat

Download on the App Store